Location: Elkol
(41.7238°N, 110.6124°W)
Time: 16:18:11
(UTC+00:00)

BlueWalker 3 - Pass Details

Date: 09 December 2022
Orbit: 499 x 517 km, 53.2° (Epoch: 01 February)

Event Time Altitude Azimuth Distance (km) Brightness Sun altitude
Rises 01:22:55 0° 310° (NW) 2,626 6.1 -16.4°
Reaches altitude 10° 01:25:12 10° 318° (NW) 1,734 5.0 -16.8°
Maximum altitude 01:28:57 43° 31° (NNE) 722 2.4 -17.5°
Enters shadow 01:29:29 40° 54° (NE) 753 2.3 -17.6°
